Location: Fredericksburg
(30.2750°N, 98.8720°W)
Time: 06:47:24
(UTC-05:00)

Daily predictions for brighter satellites

Satellite Brightness Start Highest point End
(mag) Time Altitude Azimuth Time Altitude Azimuth Time Altitude Azimuth
Cosmos 1937 Rocket 3.6 20:02:36 10° SSW 20:07:48 88° ESE 20:13:06 10° NNE
SJ-6B 3.3 20:06:26 10° SE 20:09:50 34° ENE 20:13:14 10° N
SeaSat 1 3.4 20:06:14 10° ESE 20:10:23 28° ENE 20:14:33 10° N
Cosmos 1812 Rocket 3.7 20:07:52 10° S 20:12:11 55° E 20:16:29 10° NNE
Cosmos 1378 3.8 20:08:55 10° NNE 20:12:21 33° E 20:15:45 10° SSE
SL-27 R/B 4.1 20:11:07 10° NNE 20:13:40 18° ENE 20:16:13 10° ESE
H-2A R/B (2) 1.2 20:13:21 10° W 20:15:59 71° S 20:20:33 10° E
Cosmos 2278 Rocket 2.2 20:12:04 10° S 20:17:39 65° ESE 20:23:17 10° NNE
Cosmos 1821 Rocket 4.0 20:12:09 10° S 20:18:32 77° E 20:24:53 10° N
FENGYUN 3A 4.1 20:14:07 10° SE 20:19:08 41° ENE 20:24:10 10° N
SWIFT 4.3 20:17:57 10° SW 20:21:02 19° S 20:24:06 10° SE
Meteor 1-4 Rocket 4.1 20:19:36 10° SE 20:21:42 15° E 20:23:48 10° NE
CZ-3B DEB 4.4 20:10:12 10° SW 20:24:11 53° NW 20:30:45 10° NNE
Resurs 01 Rocket 2.5 20:22:08 10° SE 20:25:52 28° ENE 20:29:38 10° NNE
Cosmos 1544 4.1 20:24:54 10° SSE 20:27:55 25° E 20:30:57 10° NE
Delta 2 Rocket 4.1 20:23:25 10° WNW 20:28:13 51° N 20:32:00 13° E
Helios 1B rocket 3.7 20:27:29 10° NE 20:30:29 19° E 20:33:28 10° SE
FengYun 1-2 T 4.5 20:25:25 10° SSE 20:30:44 50° ENE 20:36:08 10° N
H-2A R/B 3.6 20:28:22 10° SE 20:31:47 31° ENE 20:35:15 10° NNE
Cosmos 2297 4.2 20:27:20 10° SSE 20:32:27 35° ESE 20:37:37 10° NE
Cosmos 1758 4.2 20:29:26 10° SSE 20:32:45 26° E 20:36:04 10° NNE
Lacrosse 4 Rocket 4.2 20:29:58 10° WSW 20:32:58 20° WNW 20:35:57 10° NNW
ATLAS 5 CENTAUR R/B 2.8 20:29:43 10° SSE 20:33:16 23° ESE 20:36:58 10° ENE
GPS 2-05 Rocket1 2.8 20:32:38 10° WSW 20:36:10 85° SSE 20:39:10 14° ENE
Cosmos 1605 Rocket 4.1 20:30:34 10° SSE 20:36:36 55° E 20:42:45 10° NNE
Cosmos 1953 3.1 20:37:50 10° SSE 20:41:27 31° E 20:45:03 10° NNE
Cosmos 1707 3.9 20:38:49 10° NNW 20:42:33 45° W 20:46:14 10° SSW
Cosmos-2242 4.5 20:44:00 17° E 20:44:00 17° E 20:46:27 10° NE
Meteor 1-24 Rocket 3.7 20:43:17 10° N 20:48:50 83° E 20:54:35 10° S
Cosmos 372 Rocket 4.4 20:44:25 10° SSE 20:49:02 36° E 20:53:42 10° NE
Delta 2 Rocket 4.5 20:42:13 10° W 20:49:11 54° SSW 20:53:43 18° ESE
ALOS 2.3 20:45:50 10° SSE 20:50:30 86° WSW 20:55:11 10° NNW
Cosmos 1867 3.5 20:47:20 10° SSW 20:52:41 64° ESE 20:58:05 10° NE
Cosmos 2082 Rocket 3.6 20:49:31 10° NNE 20:53:27 19° ENE 20:54:34 18° ENE
Cosmos 2123 Rocket 3.9 20:50:18 10° N 20:56:37 75° E 21:02:51 10° S
Cosmos 1766 4.4 20:53:36 10° SSW 20:57:19 46° W 21:01:04 10° N
Spot 2 Rocket 3.4 20:57:14 10° SSE 21:02:18 73° ENE 21:07:24 10° N
USA 215 3.2 20:59:26 10° NE 21:05:58 75° SE 21:12:28 10° SW
ISS -3.9 21:03:40 10° SSW 21:06:50 59° SE 21:07:13 54° E
Resurs 1-3 3.5 21:04:08 10° SSE 21:08:30 79° ENE 21:12:53 10° N
Cosmos 1153 Rocket 4.5 21:02:18 10° S 21:08:38 70° E 21:15:00 10° N
Spot 1 4.5 21:10:46 34° ESE 21:12:18 47° ENE 21:16:53 10° N
Delta 168 3.3 21:14:02 10° WSW 21:17:12 32° S 21:17:12 32° S
RESURS DK-1 2.6 21:15:19 10° NNW 21:19:24 67° WSW 21:21:40 25° S
Aurora 2 Rocket 3.6 21:13:04 10° WSW 21:19:32 42° S 21:20:55 35° SE
Envisat 3.5 21:20:13 36° ENE 21:20:23 37° ENE 21:25:01 10° N
Cosmos 1674 4.3 21:20:42 10° NNE 21:22:20 22° NNE 21:22:20 22° NNE
CZ-2D R/B 3.5 21:22:56 24° S 21:25:10 69° W 21:29:02 10° NNW
Cosmos 1408 Rocket 4.0 21:24:00 10° N 21:27:37 44° NE 21:27:37 44° NE
Cosmos 1125 Rocket 4.0 21:23:27 10° SSW 21:28:32 59° WNW 21:33:40 10° N
SAR-Lupe-4 3.6 21:29:55 69° N 21:29:55 69° N 21:33:06 10° N
Cosmos 1459 Rocket 3.9 21:25:55 10° S 21:32:06 61° E 21:38:12 10° NNE
Cosmos 1447 Rocket 4.3 21:29:00 10° N 21:35:09 85° E 21:39:38 20° S
Tiangong 1 3.0 21:33:00 10° NW 21:34:28 26° NW 21:34:28 26° NW
Meteor 1-21 Rocket 4.2 21:30:01 10° N 21:35:53 77° E 21:38:29 35° SSE
Cosmos 2173 Rocket 3.8 21:30:39 10° S 21:36:41 65° E 21:42:51 10° NNE
Cosmos 1048 Rocket 4.1 21:33:19 10° N 21:38:01 54° ENE 21:38:01 54° ENE
Cosmos 1470 4.3 21:47:42 30° N 21:47:42 30° N 21:49:47 10° N
SeaSat 1 4.2 21:43:35 10° SSW 21:47:46 28° WSW 21:51:59 10° NW
Delta 128 4.2 21:50:05 10° W 21:53:28 48° WSW 21:53:28 48° WSW
Yuri Rocket 4.2 21:53:51 10° W 21:56:31 33° WSW 21:56:31 33° WSW
GP-B 4.0 21:56:43 35° SW 21:58:01 45° W 22:02:16 10° NNW
Resurs 01 Rocket 4.2 21:59:13 10° SW 22:02:17 19° W 22:05:22 10° NW
Cosmos 1833 Rocket 2.9 21:58:22 10° NNW 22:02:59 58° N 22:02:59 58° N
Cosmos 1818 3.7 22:00:51 10° NNW 22:05:43 70° NW 22:05:43 70° NW
Cosmos 2016 Rocket 3.9 22:08:49 75° NNE 22:08:49 75° NNE 22:14:26 10° N
ATLAS 5 CENTAUR R/B 3.6 22:13:41 10° WSW 22:17:41 28° NW 22:21:56 10° N
Cosmos 2082 Rocket 3.3 22:32:19 10° NNW 22:36:28 40° WNW 22:36:28 40° WNW
CZ-3 Stage 3 3.9 22:59:27 10° W 23:12:44 47° W 23:12:44 47° W
